Regional Weather Roundup
Issued by NWS

Current Version | Previous Version | Text Only | Print | Product List | Glossary On
Versions: 1 2 3 4 5 6 7 8 9 10 11 12 13 14 15 16 17 18 19 20 21 22 23 24 25 26 27 28 29 30 31 32 33 34 35 36 37 38 39 40 41 42 43 44 45 46 47 48 49 50
000
ASUS42 KFFC 210810
RWRGA
WEATHER ROUNDUP FOR GEORGIA
NATIONAL WEATHER SERVICE PEACHTREE CITY GA
400 AM EDT SAT APR 21 2018

NOTE: "FAIR" INDICATES FEW OR NO CLOUDS BELOW 12,000 FEET WITH NO
SIGNIFICANT WEATHER AND/OR OBSTRUCTIONS TO VISIBILITY.

* = USE WITH CAUTION. THE STATIONS MARKED WITH AN ASTERISK MAY NOT
REPORT WEATHER SUCH AS PRECIPITATION, FOG, OR THUNDER AND ARE NOT
QUALITY CONTROLLED BY NWS.

THE REMARK "TC" DENOTES TEMPERATURE READING IN DEGREES CELSIUS.

GAZ001>058-210900-
NORTH GEORGIA

CITY           SKY/WX    TMP DP  RH WIND       PRES   REMARKS
ATLANTA        FAIR      50  36  58 E6        30.29R
ATHENS         FAIR      42  37  82 NE5       30.31R
CHAMBLEE       FAIR      42  35  76 CALM      30.29S
PEACHTREE CITY FAIR      39  37  92 CALM      30.28F
ROME           FAIR      41  38  89 CALM      30.30R
WEST ATLANTA   FAIR      41  40  96 CALM      30.29S
GAINESVILLE    FAIR      45  35  68 NE3       30.32R
CARTERSVILLE   FAIR      38  37  97 CALM      30.31R


CITY           SKY/WX    TMP DP  RH WIND       PRES   REMARKS
DALTON*        FAIR      37  37 100 CALM      30.32R
LAWRENCEVILLE* FAIR      40  37  89 CALM      30.31R
MARIETTA       FAIR      45  38  77 CALM      30.29R
KENNESAW*      FAIR      45  39  79 CALM      30.31R
CANTON*        FAIR      48  32  53 CALM      30.31S
BLAIRSVILLE*   FAIR      37  33  87 CALM      30.33R FOG
$$

GAZ059>098-102>109-210900-
CENTRAL GEORGIA

CITY           SKY/WX    TMP DP  RH WIND       PRES   REMARKS
AUGUSTA-BUSH   FAIR      39  38  96 CALM      30.32R
AUGUSTA-DANIEL FAIR      51  38  60 E5        30.32R
COLUMBUS       FAIR      54  35  48 E6        30.25S
MACON          FAIR      41  39  93 CALM      30.28R
ROBINS AFB     CLEAR     44  41  91 CALM      30.28R


CITY           SKY/WX    TMP DP  RH WIND       PRES   REMARKS
LAGRANGE*      FAIR      41  41  98 CALM      30.27R
SYLVANIA*      FAIR      46  45  93 E3        30.30S
MILLEDGEVILLE* FAIR      43  41  93 CALM      30.30R
$$

GAZ099>101-110>166-210900-
SOUTH GEORGIA

CITY           SKY/WX    TMP DP  RH WIND       PRES   REMARKS
SAVANNAH       FAIR      50  47  89 NE6       30.28R
VALDOSTA       CLOUDY    60  44  55 E7        30.21F
ALMA           FAIR      54  49  83 CALM      30.24F
ST SIMONS      CLOUDY    64  49  57 NE13G22   30.23S
FT STEWART     MOCLDY    49  46  89 NE3       30.25R
ALBANY         FAIR      56  45  66 NE5       30.25R
HUNTER AFB     FAIR      58  45  61 CALM      30.24S
MOODY AFB      CLOUDY    58  47  66 E6        30.21S
BRUNSWICK      MOCLDY    63  43  48 NE15G21   30.24F


CITY           SKY/WX    TMP DP  RH WIND       PRES   REMARKS
BAINBRIDGE*      N/A     59  54  82 E7        30.21S
MOULTRIE*      CLOUDY    57  50  77 E5        30.23R
VIDALIA*       FAIR      50  48  93 E3        30.28R
WAYCROSS*      FAIR      54  52  90 E5        30.24S
DOUGLAS*       MOCLDY    52  46  82 E5        30.26S
$$



USA.gov is the U.S. government's official web portal to all federal, state and local government web resources and services.